Fort Worth Alliance, TX

12:12 AM CDT on September 22, 2017 (GMT -0500)
Fort Worth Alliance

Weather History for KAFW - October, 2012

Change the Weather History Date:

Wednesday, October 10, 2012

  Actual Average Record
Temperature  
Mean Temperature 64 °F -  
Max Temperature 69 °F 77 °F 93 °F (2014)
Min Temperature 59 °F 54 °F 36 °F (2000)
Degree Days  
Heating Degree Days 2    
Growing Degree Days 14 (Base 50)    
Moisture  
Dew Point 61 °F    
Average Humidity 90    
Maximum Humidity 100    
Minimum Humidity 76    
Precipitation  
Precipitation 0.00 in - - ()
Sea Level Pressure  
Sea Level Pressure 30.08 in    
Wind  
Wind Speed 4 mph (NE)    
Max Wind Speed 13 mph    
Max Gust Speed 21 mph    
Visibility 5 miles    
Events Fog    
Averages and records for this station are not official NWS values.
T = Trace of Precipitation, MM = Missing Value Source: NWS Daily Summary

Daily Weather History Graph

Daily Weather History Graph

Search for Another Location

Airport or City:

Trip Planner

Search our weather history database for the weather conditions in past years. The results will help you decide how hot, cold, wet, or windy it might be!

Date:

Astronomy

Oct. 10, 2012 Rise Set
Actual Time 7:30 AM CDT 7:01 PM CDT
Civil Twilight 7:05 AM CDT 7:26 PM CDT
Nautical Twilight 6:36 AM CDT 7:54 PM CDT
Astronomical Twilight 6:08 AM CDT 8:23 PM CDT
Moon 2:23 AM CDT (10/10) 3:51 PM CDT (10/10)
Length of Visible Light 12h 20m
Length of Day
11h 31m
Waning Crescent, 27% of the Moon is Illuminated
Oct 10
Waning Crescent
Oct 15
New
Oct 21
First Quarter
Oct 29
Full
Nov 6
Last Quarter

Hourly Weather History & Observations

Time (CDT) Temp. Dew Point Humidity Pressure Visibility Wind Dir Wind Speed Gust Speed Precip Events Conditions
12:53 AM 64.0 °F 61.0 °F 90% 29.94 in 9.0 mi Calm Calm - N/A   Clear
1:53 AM 61.0 °F 59.0 °F 93% 29.95 in 6.0 mi Calm Calm - N/A   Clear
2:53 AM 60.1 °F 59.0 °F 96% 29.96 in 5.0 mi Calm Calm - N/A   Clear
3:53 AM 61.0 °F 60.1 °F 97% 29.97 in 5.0 mi Calm Calm - N/A   Clear
4:53 AM 60.1 °F 59.0 °F 96% 29.99 in 4.0 mi Calm Calm - N/A   Clear
5:41 AM 59.0 °F 59.0 °F 100% 30.03 in 5.0 mi Calm Calm - N/A   Scattered Clouds
5:53 AM 60.1 °F 59.0 °F 96% 30.01 in 5.0 mi North 3.5 mph - N/A   Scattered Clouds
5:57 AM 60.8 °F 59.0 °F 94% 30.03 in 4.0 mi North 3.5 mph - N/A   Mostly Cloudy
6:05 AM 60.8 °F 59.0 °F 94% 30.04 in 2.5 mi Calm Calm - N/A   Mostly Cloudy
6:53 AM 61.0 °F 60.1 °F 97% 30.05 in 2.5 mi NNE 3.5 mph - N/A   Overcast
7:16 AM 62.6 °F 60.8 °F 94% 30.08 in 1.0 mi NNE 5.8 mph - N/A   Overcast
7:32 AM 62.6 °F 60.8 °F 94% 30.09 in 2.0 mi NNE 5.8 mph - N/A   Overcast
7:53 AM 62.1 °F 61.0 °F 96% 30.07 in 1.8 mi NNE 6.9 mph - N/A   Overcast
8:37 AM 62.6 °F 62.6 °F 100% 30.11 in 0.2 mi NE 10.4 mph - N/A Fog Fog
8:53 AM 62.1 °F 62.1 °F 100% 30.10 in 0.5 mi NE 12.7 mph - N/A Fog Fog
9:16 AM 62.6 °F 60.8 °F 94% 30.13 in 1.2 mi NE 10.4 mph - N/A   Overcast
9:35 AM 62.6 °F 60.8 °F 94% 30.14 in 3.0 mi NE 9.2 mph - N/A   Overcast
9:53 AM 62.1 °F 61.0 °F 96% 30.13 in 2.5 mi NE 9.2 mph - 0.00 in   Light Drizzle
10:37 AM 62.6 °F 60.8 °F 94% 30.16 in 3.0 mi NE 11.5 mph - 0.00 in   Light Drizzle
10:53 AM 63.0 °F 61.0 °F 93% 30.14 in 3.0 mi ENE 11.5 mph 20.7 mph 0.00 in   Light Drizzle
11:08 AM 62.6 °F 60.8 °F 94% 30.16 in 2.5 mi NE 12.7 mph - 0.00 in   Light Drizzle
11:53 AM 63.0 °F 60.1 °F 90% 30.15 in 3.0 mi NE 9.2 mph - 0.00 in   Light Drizzle
12:08 PM 62.6 °F 60.8 °F 94% 30.16 in 5.0 mi ENE 9.2 mph - 0.00 in   Overcast
12:53 PM 64.0 °F 61.0 °F 90% 30.15 in 6.0 mi ENE 9.2 mph - 0.00 in   Overcast
1:53 PM 64.9 °F 61.0 °F 87% 30.13 in 6.0 mi NE 8.1 mph - N/A   Overcast
2:53 PM 66.9 °F 62.1 °F 84% 30.10 in 7.0 mi NE 4.6 mph - N/A   Overcast
3:53 PM 66.0 °F 62.1 °F 87% 30.09 in 5.0 mi NE 9.2 mph - N/A   Overcast
4:16 PM 66.2 °F 62.6 °F 88% 30.10 in 6.0 mi NE 8.1 mph - N/A   Haze
4:53 PM 68.0 °F 62.1 °F 81% 30.08 in 6.0 mi NE 8.1 mph - N/A   Haze
5:53 PM 68.0 °F 61.0 °F 78% 30.08 in 7.0 mi NE 5.8 mph - N/A   Overcast
6:53 PM 68.0 °F 61.0 °F 78% 30.08 in 8.0 mi NE 4.6 mph - N/A   Overcast
6:57 PM 68.0 °F 60.8 °F 78% 30.09 in 8.0 mi NE 4.6 mph - N/A   Overcast
7:53 PM 68.0 °F 60.1 °F 76% 30.09 in 10.0 mi NE 3.5 mph - N/A   Overcast
8:53 PM 66.9 °F 61.0 °F 81% 30.10 in 9.0 mi ENE 4.6 mph - N/A   Overcast
9:53 PM 66.9 °F 61.0 °F 81% 30.10 in 8.0 mi East 6.9 mph - N/A   Overcast
10:53 PM 66.9 °F 60.1 °F 79% 30.11 in 8.0 mi ESE 5.8 mph - N/A   Overcast
11:17 PM 66.2 °F 60.8 °F 83% 30.12 in 8.0 mi East 4.6 mph - N/A   Overcast
11:53 PM 66.9 °F 60.1 °F 79% 30.10 in 8.0 mi Calm Calm - N/A   Overcast